This demonstration page uses our WeatherBlox Daily Observations layout. Learn more.

Hourly Observations for March 9, 2018

Temp ( °F °C ) Dew Point ( °F °C ) Humidity (%) Winds ( mph kmh ) Pressure ( in mb ) Visibility ( mi km ) Precip ( " mm )
12:15 am 00:15 Partly Cloudy 33 0.5 17 -8.5 51 51 SE 12 19 29.91 1013 10 16.0934 0 0
12:35 am 00:35 Partly Cloudy 33 0.6 17 -8.2 52 52 SE 9 15 29.91 1013 10 16.0934 0 0
12:55 am 00:55 Partly Cloudy 32 0.2 17 -8.2 54 54 SE 8 13 29.91 1013 10 16.0934 0 0
1:15 am 01:15 Partly Cloudy 32 0 17 -8.2 54 54 SE 10 17 29.91 1013 10 16.0934 0 0
1:35 am 01:35 Mostly Cloudy 32 0 18 -8 55 55 SSE 9 15 29.91 1013 10 16.0934 0 0
1:55 am 01:55 Partly Cloudy 32 -0.2 18 -8 56 56 SSE 9 15 29.88 1012 10 16.0934 0 0
2:15 am 02:15 Mostly Cloudy 31 -0.3 18 -8 56 56 SSE 9 15 29.88 1012 10 16.0934 0 0
2:35 am 02:35 Mostly Cloudy 31 -0.3 18 -8 56 56 Calm 29.88 1012 10 16.0934 0 0
2:55 am 02:55 Partly Cloudy 31 -0.7 18 -7.7 59 59 SE 5 7 29.88 1012 10 16.0934 0 0
3:15 am 03:15 Clear 30 -1.2 18 -8 60 60 SE 7 11 29.88 1012 10 16.0934 0 0
3:35 am 03:35 Clear 26 -3.3 17 -8.5 68 68 Calm 29.91 1013 10 16.0934 0 0
3:55 am 03:55 Clear 27 -2.9 17 -8.3 67 67 SSE 3 6 29.91 1013 10 16.0934 0 0
4:15 am 04:15 Clear 25 -4.1 16 -8.9 70 70 SSE 5 7 29.88 1012 10 16.0934 0 0
4:35 am 04:35 Clear 26 -3.6 17 -8.6 69 69 S 6 9 29.88 1012 10 16.0934 0 0
4:55 am 04:55 Clear 26 -3.6 17 -8.5 69 69 S 5 7 29.88 1012 10 16.0934 0 0
5:15 am 05:15 Clear 25 -4 17 -8.5 71 71 S 6 9 29.88 1012 10 16.0934 0 0
5:35 am 05:35 Clear 25 -3.9 17 -8.4 71 71 SSW 7 11 29.88 1012 10 16.0934 0 0
5:55 am 05:55 Clear 24 -4.5 17 -8.6 73 73 SW 5 7 29.88 1012 10 16.0934 0 0
6:15 am 06:15 Clear 24 -4.3 17 -8.5 73 73 WSW 3 6 29.88 1012 10 16.0934 0 0
6:35 am 06:35 Clear 24 -4.5 16 -8.7 73 73 SSW 5 7 29.88 1012 10 16.0934 0 0
6:55 am 06:55 Clear 24 -4.6 17 -8.6 74 74 SSW 7 11 29.88 1012 10 16.0934 0 0
7:15 am 07:15 Sunny 24 -4.7 17 -8.4 76 76 SSW 6 9 29.88 1012 10 16.0934 0 0
7:35 am 07:35 Sunny 25 -4 17 -8.1 73 73 SW 7 11 29.88 1012 10 16.0934 0 0
7:55 am 07:55 Sunny 28 -2.3 19 -7.3 69 69 Calm 29.85 1011 10 16.0934 0 0
8:15 am 08:15 Sunny 32 -0.2 20 -6.7 62 62 SW 5 7 29.85 1011 10 16.0934 0 0
8:35 am 08:35 Sunny 34 1.3 20 -6.5 56 56 W 7 11 29.83 1010 10 16.0934 0 0
8:55 am 08:55 Sunny 38 3.4 22 -5.6 52 52 WNW 9 15 29.83 1010 10 16.0934 0 0
9:15 am 09:15 Sunny 42 5.7 24 -4.4 49 49 NW 10 17 29.8 1009 10 16.0934 0 0
9:35 am 09:35 Sunny 46 7.9 26 -3.4 45 45 NNW 13 20 29.77 1008 10 16.0934 0 0
9:55 am 09:55 Sunny 47 8.6 27 -3 44 44 NW 15 24 29.8 1009 10 16.0934 0 0
10:15 am 10:15 Sunny 49 9.3 27 -3 42 42 NW 13 20 29.8 1009 10 16.0934 0 0
10:35 am 10:35 Sunny 49 9.3 27 -2.9 43 43 NW 15 24 29.8 1009 10 16.0934 0 0
10:55 am 10:55 Sunny 50 10.1 28 -2.4 42 42 NW 16 26 29.8 1009 10 16.0934 0 0
11:15 am 11:15 Sunny 51 10.7 29 -1.9 42 42 NNW 13 20 29.77 1008 10 16.0934 0 0
11:35 am 11:35 Sunny 53 11.9 29 -1.8 39 39 NNW 15 24 29.77 1008 10 16.0934 0 0
11:55 am 11:55 Sunny 54 12.2 28 -2.1 37 37 N 16 26 29.77 1008 10 16.0934 0 0
12:15 pm 12:15 Sunny 55 12.7 29 -1.7 37 37 NNW 12 19 29.77 1008 10 16.0934 0 0
12:35 pm 12:35 Sunny 56 13.1 29 -1.6 36 36 NNW 10 17 29.77 1008 10 16.0934 0 0
12:55 pm 12:55 Sunny 56 13.3 28 -2 35 35 NNW 13 20 29.77 1008 10 16.0934 0 0
1:15 pm 13:15 Sunny 57 13.7 28 -2.1 34 34 NNW 15 24 29.77 1008 10 16.0934 0 0
1:35 pm 13:35 Sunny 57 13.7 29 -1.6 35 35 NNW 13 20 29.77 1008 10 16.0934 0 0
1:55 pm 13:55 Sunny 56 13.6 28 -2 34 34 N 12 19 29.77 1008 10 16.0934 0 0
2:15 pm 14:15 Sunny 57 13.9 27 -2.6 32 32 N 12 19 29.74 1007 10 16.0934 0 0
2:35 pm 14:35 Sunny 57 13.9 27 -2.7 32 32 N 10 17 29.74 1007 10 16.0934 0 0
2:55 pm 14:55 Sunny 58 14.2 27 -2.6 31 31 N 12 19 29.74 1007 10 16.0934 0 0
3:15 pm 15:15 Sunny 57 14.1 28 -2.5 32 32 NNW 7 11 29.74 1007 10 16.0934 0 0
3:35 pm 15:35 Sunny 57 14.1 27 -2.9 31 31 N 10 17 29.74 1007 10 16.0934 0 0
3:55 pm 15:55 Sunny 57 14 26 -3.3 30 30 NNW 9 15 29.74 1007 10 16.0934 0 0
4:15 pm 16:15 Sunny 57 14 27 -2.7 32 32 N 7 11 29.74 1007 10 16.0934 0 0
4:35 pm 16:35 Sunny 57 13.9 28 -2.5 32 32 N 8 13 29.74 1007 10 16.0934 0 0
4:55 pm 16:55 Sunny 56 13.5 27 -2.7 33 33 N 8 13 29.77 1008 10 16.0934 0 0
5:15 pm 17:15 Sunny 56 13.3 27 -3 32 32 N 7 11 29.77 1008 10 16.0934 0 0
5:35 pm 17:35 Sunny 55 13 27 -2.9 33 33 NE 8 13 29.77 1008 10 16.0934 0 0
5:55 pm 17:55 Sunny 53 11.8 26 -3.3 35 35 ENE 10 17 29.77 1008 10 16.0934 0 0
6:15 pm 18:15 Sunny 50 10.2 26 -3.4 39 39 E 10 17 29.8 1009 10 16.0934 0 0
6:35 pm 18:35 Sunny 48 8.8 25 -3.8 41 41 E 9 15 29.8 1009 10 16.0934 0 0
6:55 pm 18:55 Clear 42 5.7 24 -4.5 48 48 E 9 15 29.83 1010 10 16.0934 0 0
7:15 pm 19:15 Clear 44 6.5 24 -4.2 47 47 E 14 22 29.83 1010 10 16.0934 0 0
7:35 pm 19:35 Clear 42 5.6 25 -4.1 50 50 E 14 22 29.83 1010 10 16.0934 0 0
7:55 pm 19:55 Clear 41 4.8 25 -4.1 53 53 E 13 20 29.83 1010 10 16.0934 0 0
8:15 pm 20:15 Clear 39 4.1 25 -4.1 56 56 E 12 19 29.83 1010 10 16.0934 0 0
8:35 pm 20:35 Clear 37 3 24 -4.3 59 59 E 9 15 29.85 1011 10 16.0934 0 0
8:55 pm 20:55 Clear 36 2.2 24 -4.5 62 62 ESE 7 11 29.85 1011 10 16.0934 0 0
9:15 pm 21:15 Clear 35 1.8 24 -4.5 63 63 ESE 7 11 29.85 1011 10 16.0934 0 0
9:35 pm 21:35 Clear 35 1.7 24 -4.6 63 63 SE 5 7 29.85 1011 10 16.0934 0 0
9:55 pm 21:55 Clear 35 1.6 24 -4.5 64 64 ESE 8 13 29.85 1011 10 16.0934 0 0
10:15 pm 22:15 Clear 36 2 24 -4.3 63 63 SE 9 15 29.85 1011 10 16.0934 0 0
10:35 pm 22:35 Clear 35 1.9 24 -4.4 63 63 SE 8 13 29.88 1012 10 16.0934 0 0
10:55 pm 22:55 Clear 35 1.7 24 -4.5 64 64 SSE 8 13 29.88 1012 10 16.0934 0 0
11:15 pm 23:15 Clear 35 1.5 24 -4.5 65 65 SE 7 11 29.88 1012 10 16.0934 0 0
11:35 pm 23:35 Clear 35 1.8 24 -4.2 65 65 SE 9 15 29.85 1011 10 16.0934 0 0
11:55 pm 23:55 Clear 35 1.6 24 -4.2 66 66 SE 9 15 29.85 1011 10 16.0934 0 0

Powered by AerisWeather